Regional Weather Roundup
Issued by NWS State College, PA

Home | Current Version | Previous Version | Text Only | Print | Product List | Glossary On
Versions: 1 2 3 4 5 6 7 8 9 10 11 12 13 14 15 16 17 18 19 20 21 22 23 24 25 26 27 28 29 30 31 32 33 34 35 36 37 38 39 40 41 42 43 44 45 46 47 48 49 50
000
ASUS41 KCTP 220210
RWRCTP

REGIONAL WEATHER ROUNDUP
NATIONAL WEATHER SERVICE STATE COLLEGE PA
1000 PM EDT SAT OCT 21 2017

Note: "fair" indicates few or no clouds below 12,000 feet with no
significant weather and/or obstructions to visibility.

* = STATION THAT DOES NOT REPORT PRECIPITATION /E.G. RAIN...SNOW...ETC/
    THUNDER OR FOG.

PAZ002>004-007>009-013>016-020>023-029>032-220300-
WESTERN PENNSYLVANIA

CITY           SKY/WX    TMP DP  RH WIND       PRES   REMARKS
ERIE           CLOUDY    61  50  67 S6        30.24S
MEADVILLE      MOCLDY    61  51  70 CALM      30.27S
FRANKLIN*      MOCLDY    63  48  58 SE8       30.29S
NEW CASTLE     FAIR      56  53  90 CALM      30.28S
BEAVER COUNTY  NOT AVBL
BUTLER*        CLOUDY    58  52  80 SE3       30.29R
PITTSBURGH INT CLOUDY    61  55  81 CALM      30.28S
PITTSBURGH     PTCLDY    65  52  62 S5        30.28S
INDIANA*       CLEAR     64  48  55 S6        30.34R
LATROBE        CLEAR     64  48  55 SW6       30.31R
WASHINGTON CO* NOT AVBL
$$

PAZ004>006-010>012-017>019-024>028-033>037-041-042-045-046-049>053-220300-
CENTRAL PENNSYLVANIA

CITY           SKY/WX    TMP DP  RH WIND       PRES   REMARKS
BRADFORD       CLOUDY    58  41  53 SE7       30.33S
DUBOIS         CLOUDY    59  41  51 SE7       30.32S
CLEARFIELD     CLOUDY    54  45  71 N5        30.34S
JOHNSTOWN      MOCLDY    59  45  59 S7        30.35R
ALTOONA        PTCLDY    62  43  49 S6        30.35S
STATE COLLEGE  CLEAR     59  45  58 CALM      30.35R
WILLIAMSPORT   CLEAR     52  48  86 CALM      30.34R
SELINSGROVE    CLEAR     48  48 100 CALM      30.35S
FT INDIANTOWN  CLEAR     51  49  95 CALM      30.36S
CAPITAL CITY   CLEAR     54  49  83 CALM      30.35S
HARRISBURG     MOCLDY    56  50  80 CALM      30.35R
YORK           CLEAR     51  45  79 E3        30.35S
$$

PAZ038>040-043-044-047-048-054-055-060>062-067>071-220300-
EASTERN PENNSYLVANIA

CITY           SKY/WX    TMP DP  RH WIND       PRES   REMARKS
SCRANTON       CLOUDY    57  43  59 E6        30.36S
MOUNT POCONO   CLEAR     43  40  89 W5        30.39R
ALLENTOWN      PTCLDY    53  46  77 CALM      30.36S
QUAKERTOWN*    PTCLDY    50  46  87 CALM      30.38S
READING        CLEAR     54  51  90 N3        30.35S
LANCASTER      CLEAR     56  47  71 CALM      30.36S
COATESVILLE    CLEAR     59  45  58 CALM      30.39S
POTTSTOWN      PTCLDY    52  48  86 CALM      30.38S
BLUE BELL      PTCLDY    46  46 100 CALM      30.38S
DOYLESTOWN     CLOUDY    54  46  74 CALM      30.36S
WILLOW GROVE   NOT AVBL
NORTH PHILA    PTCLDY    58  47  66 CALM      30.38S
PHILADELPHIA   MOCLDY    63  44  50 SW3       30.37S
$$



USA.gov is the U.S. government's official web portal to all federal, state and local government web resources and services.